Regional Weather Roundup
Issued by NWS

Home | Current Version | Previous Version | Text Only | Print | Product List | Glossary Off
Versions: 1 2 3 4 5 6 7 8 9 10 11 12 13 14 15 16 17 18 19 20 21 22 23 24 25 26 27 28 29 30 31 32 33 34 35 36 37 38 39 40 41 42 43 44 45 46 47 48 49 50

038
ASUS44 KMEG 292110
RWRTN
TENNESSEE HOURLY STATE WEATHER ROUNDUP
NATIONAL WEATHER SERVICE MEMPHIS TN
400 PM CDT FRI APR 29 2016

TNZ002-004-019-021-049-052-054-088>092-292200-
WEST TENNESSEE

CITY           SKY/WX    TMP DP  RH WIND       PRES   REMARKS
MEMPHIS INTL   CLOUDY    65  62  90 SE13G23   29.92F
NWS MEMPHIS      N/A     62 N/A N/A MISG        N/A
JACKSON        RAIN      62  60  93 E13       29.98F
DYERSBURG      CLOUDY    61  57  88 E13       29.96F
UNION CITY     CLOUDY    61  61 100 SE10      29.95F
LEXINGTON      PTSUNNY   63  63 100 NE5       30.03F
$$

TNZ008-025-027-028-033-062-065-066-292200-
NORTH MIDDLE TENNESSEE

CITY           SKY/WX    TMP DP  RH WIND       PRES   REMARKS
NASHVILLE      CLOUDY    76  54  46 N5        30.01S
CLARKSVILLE    LGT RAIN  66  60  81 NW7       30.04R
SMYRNA         PTSUNNY   76  60  57 VRB7      30.00F
COOKEVILLE     SUNNY     79  52  38 N3        29.99S
CROSSVILLE     CLOUDY    78  41  26 CALM      30.02S
$$

TNZ061-075-076-078-094-096-097-292200-
SOUTH MIDDLE TENNESSEE

CITY           SKY/WX    TMP DP  RH WIND       PRES   REMARKS
FAYETTEVILLE   SUNNY     75  57  53 CALM      29.98F
TULLAHOMA      SUNNY     75  55  50 N5        29.99F
WINCHESTER     SUNNY     79  55  44 SE3       29.98F
MCMINNVILLE    SUNNY     79  52  38 N5        29.99F
COLUMBIA       SUNNY     73  63  68 VRB3      30.01R
SHELBYVILLE    SUNNY     79  63  57 N3        29.98F
$$

TNZ017-018-042-046-047-292200-
NORTHEAST TENNESSEE

CITY           SKY/WX    TMP DP  RH WIND       PRES   REMARKS
TRI CITIES     CLOUDY    78  49  35 W9        29.99F
$$

TNZ012-013-036-069-073-074-292200-
CENTRAL EAST TENNESSEE

CITY           SKY/WX    TMP DP  RH WIND       PRES   REMARKS
KNOXVILLE      CLOUDY    81  45  28 CALM      29.97R
OAK RIDGE      CLOUDY    82  48  30 CALM      29.98S
MORRISTOWN     CLEAR     79  48  34 W3        29.99R
$$

TNZ083-085-099-292200-
SOUTHEAST TENNESSEE

CITY           SKY/WX    TMP DP  RH WIND       PRES   REMARKS
CHATTANOOGA    CLOUDY    82  50  32 N7        29.97S
$$

SKY/WX REPORTED AS FAIR MEANS FEW OR NO CLOUDS BELOW
12 THOUSAND FEET.





USA.gov is the U.S. government's official web portal to all federal, state and local government web resources and services.